SCP
0 0 0 0 0 0 0 0 0 0 0 0 0 0 0 0 0 0 0 0 0 0 0 0 1 1 0 0 0 0 0 0 0 0 0 0 0 0 0 0 0 0 0 0
0 0 0 0 0 0 0 0 0 0 0 0 0 0 0 0 0 0 0 0 0 0 0 0 1 1 0 0 0 0 0 0 0 0 0 1 1 1 1 1 0 0 0 0
0 0 0 0 0 0 0 0 0 0 0 0 0 0 0 0 0 0 0 0 0 0 0 0 1 1 1 0 0 0 0 1 1 1 1 1 1 1 1 1 1 1 0 0
0 0 0 0 0 0 0 0 0 0 0 0 0 0 0 0 0 0 0 0 0 0 0 1 1 1 1 0 0 0 1 1 1 1 1 1 1 1 1 1 1 1 0 0
0 0 0 0 0 0 0 0 0 0 0 0 0 0 0 0 0 0 0 0 0 0 0 1 1 1 1 1 0 1 1 1 2 2 2 2 2 1 1 1 1 1 0 0
0 0 0 0 0 0 0 0 0 0 0 0 0 0 0 0 0 0 0 0 0 0 0 1 1 1 1 1 1 1 1 2 2 2 2 2 1 1 1 1 0 0 0 0
0 0 0 0 0 0 0 0 0 0 0 0 0 0 0 0 0 0 0 0 0 0 0 1 1 1 1 1 2 2 2 2 2 2 1 1 1 1 1 0 0 0 0 0
0 0 0 0 0 0 0 0 0 0 0 0 0 0 0 0 0 0 0 0 0 0 0 1 1 1 1 2 2 2 2 2 1 1 1 0 0 0 0 0 0 0 0 0
0 0 0 0 0 0 0 0 0 0 0 0 0 0 0 0 0 0 0 0 0 0 0 0 1 1 1 2 2 2 1 1 1 1 0 0 0 0 0 0 0 0 0 0
0 0 0 0 0 0 0 0 0 0 0 0 0 0 0 0 0 0 0 0 0 0 0 0 1 1 1 1 1 1 1 1 1 1 0 0 0 0 0 0 0 0 0 0
0 0 0 0 0 0 0 0 0 0 0 0 0 0 0 0 0 0 0 0 0 0 0 0 1 1 1 1 1 1 1 1 1 1 1 0 0 0 0 0 0 0 0 0
0 0 0 0 0 0 0 0 0 0 0 0 0 0 0 0 0 0 0 0 0 0 0 0 0 1 1 1 1 1 1 1 1 1 1 0 0 0 0 0 0 0 0 0
0 0 0 0 0 0 0 0 0 0 0 0 0 0 0 0 0 0 0 0 0 0 0 0 0 1 1 1 1 1 1 1 1 1 1 0 0 0 0 0 0 0 0 0
0 0 0 0 0 0 0 0 0 0 0 0 0 0 0 0 0 0 0 0 0 0 0 0 0 1 1 1 1 1 2 1 1 1 1 0 0 0 0 0 0 0 0 0
0 0 0 0 0 0 0 0 0 0 0 0 0 0 0 0 0 0 0 0 0 0 0 0 0 0 1 1 1 1 2 2 2 1 1 0 0 0 0 0 0 0 0 0
0 0 0 0 0 0 0 0 0 0 0 0 0 0 0 0 0 0 0 0 0 0 0 0 0 0 1 1 1 1 1 2 2 1 1 1 0 0 0 0 0 0 0 0
0 0 0 0 0 0 0 0 0 0 0 0 0 0 0 0 0 0 0 0 0 0 0 0 1 1 1 1 1 1 1 1 1 1 1 1 1 1 1 0 0 0 0 0
0 0 0 0 0 0 0 0 0 0 0 0 0 0 0 0 0 0 0 0 0 0 0 1 1 1 1 1 1 1 1 1 1 1 1 1 1 1 1 0 0 0 0 0
0 0 0 0 0 0 0 0 0 0 0 0 0 0 0 0 0 0 0 0 0 0 0 1 1 2 1 1 1 1 1 0 0 1 1 1 1 1 1 1 0 0 0 0
0 0 0 0 0 0 0 0 0 0 0 0 0 0 0 0 0 0 0 0 0 0 0 1 2 2 2 1 1 1 0 0 0 0 0 0 1 1 1 1 0 0 0 0
0 0 0 0 0 0 0 0 0 0 0 0 0 0 0 0 0 0 0 0 0 0 0 1 2 2 2 1 1 1 0 0 0 0 0 0 0 0 0 0 0 0 0 0
0 0 0 0 0 0 0 0 0 0 0 0 0 0 0 0 0 0 0 0 0 0 0 1 1 2 2 1 1 0 0 0 0 0 0 0 0 0 0 0 0 0 0 0
0 0 0 0 0 0 0 0 0 0 0 0 0 0 0 0 0 0 0 0 0 0 0 1 1 1 1 1 1 0 0 0 0 0 0 0 0 0 0 0 0 0 0 0
0 0 0 0 0 0 0 0 0 0 0 0 0 0 0 0 0 0 0 0 0 0 0 1 1 1 1 1 0 0 0 0 0 0 0 0 0 0 0 0 0 0 0 0
0 0 0 0 0 0 0 0 0 0 0 0 0 0 0 0 0 0 0 0 0 0 0 1 1 1 0 0 0 0 0 0 0 0 0 0 0 0 0 0 0 0 0 0
0 0 0 0 0 0 0 0 0 0 0 0 0 0 0 0 0 0 0 0 0 0 0 1 1 1 0 0 0 0 0 0 0 0 0 0 0 0 0 0 0 0 0 0
Wind_Speed
0 2 3 6 7 5 3 3 3 5 4 3 4 4 4 3 3 4 4 5 6 6 5 5 5 5 5 5 5 5 5 4 4 2 2 2 2 1 1 1 2 2 3 3
3 3 8 5 4 3 3 3 3 3 2 3 3 3 4 3 6 7 7 7 7 5 4 4 4 5 5 5 5 5 5 4 4 3 2 2 2 1 1 1 1 2 3 3
5 6 4 3 3 3 3 4 5 4 2 0 1 4 3 3 2 3 5 6 7 8 8 6 5 5 5 5 5 5 5 5 4 4 3 3 2 2 1 1 1 0 2 3
4 5 3 2 3 3 4 4 5 4 1 3 2 3 6 3 3 5 5 5 7 7 7 7 7 6 6 6 5 5 5 5 5 5 5 4 3 2 1 1 1 1 1 2
4 3 3 3 4 4 5 4 3 3 2 1 1 2 7 1 3 5 6 7 7 7 8 8 9 9 7 6 5 5 5 5 5 5 5 5 3 2 1 1 1 1 1 1
5 4 3 4 3 3 2 2 3 3 3 2 4 4 6 3 5 5 5 6 6 7 7 6 7 6 5 4 4 4 5 4 4 5 5 5 5 3 3 1 2 1 0 0
4 4 2 2 1 2 3 5 3 3 2 5 3 3 7 5 5 5 7 7 6 6 7 6 6 6 6 6 5 5 6 4 4 5 4 5 5 5 5 3 3 2 1 1
1 5 4 2 4 4 3 6 6 4 4 4 2 3 5 3 2 3 5 5 6 6 6 7 8 7 7 7 6 6 6 4 4 5 4 4 4 3 3 3 3 3 2 2
3 5 4 2 2 6 3 3 6 5 2 2 3 3 4 2 2 1 3 5 5 6 7 7 7 7 7 7 7 7 7 5 5 4 4 4 4 3 3 3 2 2 2 2
4 3 4 3 0 1 5 5 4 3 2 2 3 3 4 3 2 1 3 5 5 6 6 6 6 6 6 7 6 6 6 7 5 5 4 4 4 4 3 3 3 3 3 2
2 2 4 2 2 4 1 2 3 3 4 4 3 5 4 6 5 5 5 4 5 6 6 6 6 6 6 5 6 5 5 5 4 5 4 4 3 3 3 3 4 4 3 3
1 4 2 5 5 3 4 5 6 4 3 3 3 6 4 3 3 4 4 3 3 5 6 5 5 5 4 5 5 5 5 5 6 5 5 4 4 3 3 3 4 3 3 3
3 4 1 5 5 3 0 2 4 5 4 4 4 6 2 1 1 2 3 3 2 3 4 4 4 4 5 5 5 5 5 5 5 5 5 4 4 4 4 4 4 3 3 3
5 4 5 6 5 3 3 4 2 5 4 4 6 6 4 3 3 2 2 3 2 2 3 3 3 3 3 4 4 5 4 4 4 4 5 5 5 5 5 4 3 3 3 3
4 3 3 5 4 3 4 5 4 4 6 7 6 6 7 6 6 4 3 3 3 2 2 3 3 3 2 2 2 3 3 3 4 4 4 5 4 4 3 3 3 3 3 3
3 2 1 4 4 3 4 5 5 5 4 5 5 6 5 2 2 2 3 4 4 4 4 3 3 3 3 3 3 3 3 4 4 4 5 5 4 4 4 3 3 2 2 2
2 3 1 4 5 4 5 5 4 3 3 5 6 6 2 2 3 4 3 4 4 4 4 4 4 4 4 4 4 4 4 3 3 4 4 4 4 4 4 3 3 2 2 2
5 4 3 1 2 5 6 3 2 2 2 2 3 3 4 4 3 2 3 4 3 3 3 2 2 2 2 3 3 3 2 2 3 3 3 3 3 3 3 3 3 2 2 2
6 6 3 3 3 5 6 3 2 2 2 2 2 2 2 2 3 2 0 2 3 3 3 3 3 2 1 2 2 3 2 2 2 2 3 3 3 3 3 3 3 3 2 2
3 4 5 3 3 6 7 4 1 3 2 3 2 4 3 4 2 4 2 1 1 1 2 2 2 2 2 1 2 3 2 2 2 3 4 3 3 4 4 4 3 2 2 3
2 2 4 4 4 7 7 4 1 3 6 3 3 4 4 4 5 4 2 1 1 1 2 2 3 2 1 2 3 3 2 2 3 2 2 2 3 3 3 3 2 2 2 2
5 4 4 5 4 8 4 1 4 6 3 3 2 3 3 2 2 2 2 2 2 1 2 2 3 2 1 2 4 3 2 3 1 1 2 2 2 2 2 2 2 2 2 2
5 7 6 8 8 5 3 5 4 3 3 3 3 2 4 3 2 2 2 2 1 1 1 1 2 2 1 1 3 3 2 1 2 2 1 1 1 1 1 2 2 2 2 2
3 2 3 2 4 3 2 2 1 3 3 3 4 4 4 3 3 3 3 2 1 0 1 1 2 2 1 1 0 1 1 2 3 2 2 2 2 1 1 1 2 2 2 2
4 2 2 2 3 2 2 2 2 1 2 3 3 3 4 4 3 3 3 2 1 1 0 1 2 2 0 0 1 0 0 2 2 2 2 2 2 2 2 1 1 1 1 2
4 5 6 7 7 5 5 4 3 3 3 4 4 3 2 3 4 3 2 2 2 1 1 1 1 2 1 1 1 1 1 2 2 2 1 1 2 2 2 2 1 2 2 2
Wind_Direction
292 93 216 222 209 203 198 206 241 244 228 167 202 229 239 209 169 187 188 180 180 191 191 174 163 157 146 136 137 132 122 122 122 113 117 113 121 114 75 81 82 94 103 107
32 254 240 228 226 215 206 225 251 273 242 179 198 243 245 219 200 195 194 190 186 180 169 171 162 148 150 155 154 145 142 143 142 136 140 144 145 147 139 91 87 104 114 113
202 243 238 217 231 235 230 207 222 231 273 352 104 315 286 263 224 203 202 194 187 180 179 180 167 161 158 161 164 161 156 149 144 128 110 94 74 65 60 66 52 91 125 113
242 249 241 239 238 215 251 232 217 219 167 260 169 280 281 245 251 228 217 200 196 191 178 176 173 173 175 178 174 159 158 151 145 138 132 134 132 145 198 174 157 133 127 118
256 239 211 230 229 194 224 226 227 227 176 289 275 190 284 296 256 242 217 203 198 190 179 177 181 183 180 172 167 163 159 150 148 148 149 143 130 146 135 125 138 136 159 145
251 248 202 211 220 198 200 28 15 45 76 290 241 181 269 246 224 223 207 201 192 185 179 179 181 172 166 156 154 152 156 155 152 149 150 149 148 146 134 141 161 177 216 224
299 292 253 198 149 352 82 82 27 1 11 252 244 182 245 247 225 195 189 192 185 174 169 173 170 168 164 160 159 157 154 156 159 157 159 161 161 163 168 171 178 173 183 222
244 282 254 208 185 196 188 144 162 197 221 268 299 227 257 266 246 185 171 167 158 161 168 174 178 176 171 169 167 163 161 158 163 167 173 170 164 166 178 184 185 185 198 215
195 260 280 243 190 160 168 191 177 154 218 256 278 286 314 352 5 74 139 146 164 170 174 176 178 176 173 171 174 173 169 166 173 173 169 171 172 166 178 195 196 196 204 212
174 256 282 278 35 216 172 165 111 127 172 245 278 259 237 242 254 213 174 179 185 175 174 175 177 179 177 177 176 173 173 178 180 174 175 176 184 178 181 180 197 206 207 202
143 186 299 335 198 213 166 154 135 143 168 171 239 265 233 207 200 182 194 197 189 179 178 180 182 182 176 172 171 174 178 175 175 178 182 180 188 187 184 188 201 206 197 188
140 130 252 265 265 217 182 185 152 163 222 180 188 263 281 205 185 176 191 197 190 181 176 174 172 169 169 173 177 181 185 185 186 185 183 187 191 189 189 204 213 205 197 201
117 108 47 333 333 346 213 196 165 150 143 176 192 255 305 46 159 183 183 184 174 163 156 153 158 170 178 183 187 192 194 197 194 182 181 190 196 194 200 210 214 207 198 201
113 121 167 201 226 253 273 272 201 145 166 201 213 230 263 255 242 233 199 180 159 153 155 155 167 186 188 188 190 191 200 196 190 184 187 195 205 206 205 202 197 201 195 192
108 160 216 237 257 262 258 263 243 205 195 199 219 221 236 224 215 203 190 161 139 139 154 170 180 193 192 185 193 195 198 194 184 181 191 202 203 200 194 192 194 200 197 208
101 163 246 291 284 284 286 281 261 245 219 209 219 250 247 222 156 161 171 159 159 173 187 190 184 184 194 194 192 191 192 194 181 184 200 201 190 187 191 194 191 191 201 210
150 143 146 273 299 331 283 254 227 225 221 194 218 235 207 160 166 183 185 169 170 181 190 195 197 198 204 203 193 196 202 194 182 193 200 195 189 194 201 196 184 196 209 199
161 148 155 225 346 247 249 263 203 186 252 215 193 201 184 185 186 172 167 168 174 175 181 201 205 203 205 197 185 187 178 171 180 193 203 193 187 193 190 176 186 207 206 202
167 154 152 157 214 270 286 273 208 181 279 292 172 159 148 120 64 11 358 160 176 187 190 194 192 182 173 179 172 144 135 146 166 194 198 194 182 183 179 183 198 203 193 203
110 129 140 155 193 236 248 261 232 116 263 268 168 157 157 117 134 255 251 184 126 124 161 164 157 129 124 173 145 136 151 159 203 213 206 196 183 178 189 200 202 199 187 197
102 110 158 179 215 256 256 269 99 170 235 227 174 168 166 178 203 216 174 121 121 113 113 126 123 127 156 156 132 137 155 199 228 221 200 191 187 182 186 188 177 166 169 167
179 175 186 165 198 247 253 151 181 214 214 180 172 171 163 170 144 140 136 126 108 95 90 110 120 119 121 130 133 146 200 225 207 151 149 169 178 177 158 158 162 160 160 160
199 194 186 188 211 234 218 205 218 171 168 187 169 169 147 138 154 151 146 140 131 121 96 94 122 105 51 87 129 158 222 196 141 124 139 155 142 143 144 147 152 143 143 154
262 182 157 222 260 262 258 240 228 183 181 179 159 150 145 148 157 150 156 159 150 121 101 115 115 101 47 13 112 178 202 168 143 148 164 162 151 135 114 123 137 137 146 153
232 171 161 235 258 312 303 246 208 176 139 129 135 148 158 151 161 165 173 172 163 169 232 135 133 136 179 8 35 10 107 119 133 144 152 158 158 149 131 117 126 147 164 162
217 192 191 223 219 198 230 236 196 165 173 168 154 146 162 169 174 168 179 181 165 175 185 138 132 130 123 100 59 356 75 111 124 143 158 172 168 160 149 138 87 37 64 82